Погода в Поведниках

Россия / Московская область     55°58′34″N   37°36′30″E
темп.,
°C
ветер,
м/с
пор.,
м/с
влажн.,
%
обл.,
%
осадки,
мм/ч
давл.,
гПа
погр.,
м
15 августа, пн
пн1500:00+20вюв2460100 0.0 102176
03:00+18в2367100 0.0 102163
06:00+18в2368100 0.0 102170
09:00+23вюв345349 0.0 1021431
12:00+26вюв454087 0.0 10221643
15:00+28вюв453521 0.0 10212159
18:00+27вюв453946 0.0 1020856
21:00+21в365264 0.0 1021104
16 августа, вт
вт1600:00+19вюв38596 0.0 1022170
03:00+17вюв38655 0.0 1022193
06:00+17вюв387231 0.0 1022194
09:00+23юв58515 0.0 1023633
12:00+27юв57395 0.0 10221761
15:00+28юв563435 0.0 10212148
18:00+27вюв36408 0.0 1020844
21:00+22в355850 0.0 102196
17 августа, ср
ср1700:00+19в37685 0.0 1021150
03:00+18в38715 0.0 1021192
06:00+17в410683 0.0 1020223
09:00+23в59485 0.0 1020520
12:00+27вюв56373 0.0 10191194
15:00+29вюв44324 0.0 10182057
18:00+28в45388 0.0 1018806
21:00+22в38560 0.0 1019161
18 августа, чт
чт1800:00+20в36595 0.0 1019115
03:00+18в35625 0.0 1020107
06:00+17в36665 0.0 1020130
09:00+22в46445 0.0 1020448
12:00+27в563148 0.0 10201512
15:00+28в56285 0.0 10192106
18:00+27всв47345 0.0 1019880
21:00+21всв411500 0.0 1019295
19 августа, пт
пт1900:00+20в411560 0.0 1020291
03:00+17всв39660 0.0 1021198
06:00+17в411670 0.0 1022281
09:00+22вюв595173 0.0 1022633
12:00+22вюв5853100 0.0 1022918
15:00+20вюв7970100 0.1 1023887
18:00+17вюв4993100 1.1 1023555
21:00+17в41092100 1.6 1023460